KA5FVT Weather Reports


Display with metric or nautical units.
time (UTC)temp
F
wind
direction
speed
MPH
gust
MPH
rain 1hr
in
rain 24hr
in
rain mn
in
humidity
%
barometer
mb
20260903232955 80 229 0.0 0.0 0.00 0.29 0.00 94 1012.0
20260903232456 79 229 0.0 0.0 0.00 0.29 0.00 94 1012.0
20260903231955 79 229 0.0 0.0 0.00 0.29 0.00 93 1012.2
20260903231455 79 229 0.0 0.0 0.00 0.29 0.00 93 1012.0
20260903230958 79 229 0.0 0.0 0.00 0.29 0.00 93 1012.1
20260903230456 79 229 0.0 0.0 0.00 0.29 0.00 93 1012.2
20260903225955 79 229 0.0 0.0 0.00 0.29 0.00 93 1012.2
20260903225455 79 229 0.0 0.0 0.00 0.29 0.00 93 1012.2
20260903224955 79 229 0.0 1.0 0.00 0.29 0.00 93 1012.1
20260903224455 79 229 0.0 1.0 0.00 0.29 0.00 93 1012.1
20260903223955 79 229 0.0 1.0 0.00 0.29 0.00 93 1012.1
20260903223455 79 229 0.0 0.0 0.00 0.29 0.00 94 1012.0
20260903222956 79 229 0.0 0.0 0.00 0.29 0.00 94 1012.1
20260903222455 79 229 0.0 1.0 0.00 0.29 0.00 93 1012.1
20260903221955 79 229 0.0 0.0 0.00 0.29 0.00 94 1012.2
20260903221459 79 229 0.0 0.0 0.00 0.29 0.00 93 1012.2
20260903220955 78 229 0.0 0.0 0.00 0.29 0.00 93 1012.3
20260903220455 78 229 0.0 0.0 0.00 0.29 0.00 93 1012.5
20260903215955 79 229 0.0 1.0 0.00 0.29 0.00 94 1012.6
20260903215456 79 229 0.0 0.0 0.00 0.29 0.00 94 1012.7
20260903214955 78 229 0.0 1.0 0.00 0.29 0.00 94 1012.7
20260903214458 78 230 0.0 0.0 0.00 0.29 0.00 94 1012.7
20260903213955 78 230 0.0 0.0 0.01 0.29 0.00 94 1012.7
20260903213455 78 230 0.0 0.0 0.01 0.29 0.00 95 1012.7
20260903212956 78 230 0.0 0.0 0.01 0.29 0.00 95 1012.8
20260903212455 78 230 0.0 0.0 0.01 0.29 0.00 94 1012.8
20260903211956 78 230 0.0 0.0 0.01 0.29 0.00 94 1013.0
20260903211455 78 230 0.0 0.0 0.02 0.29 0.00 94 1012.9
20260903210956 78 230 0.0 0.0 0.02 0.29 0.00 94 1013.1
20260903210459 78 230 0.0 0.0 0.02 0.29 0.00 94 1013.1
20260903205955 78 230 0.0 0.0 0.03 0.29 0.00 93 1013.0
20260903205456 78 230 0.0 0.0 0.04 0.29 0.00 93 1013.2
20260903204955 78 230 0.0 0.0 0.04 0.29 0.00 94 1013.2
20260903204456 78 230 0.0 0.0 0.04 0.29 0.00 93 1013.2
20260903203955 78 230 0.0 0.0 0.03 0.28 0.00 93 1013.3
20260903203456 78 230 0.0 0.0 0.03 0.28 0.00 94 1013.3
20260903202956 78 230 0.0 0.0 0.03 0.28 0.00 93 1013.3
20260903202500 78 230 0.0 0.0 0.03 0.28 0.00 93 1013.4
20260903201955 78 230 0.0 0.0 0.03 0.28 0.00 93 1013.4
20260903201455 78 230 0.0 0.0 0.02 0.27 0.00 94 1013.3
20260903200959 78 230 0.0 0.0 0.03 0.27 0.00 94 1013.3
20260903200455 78 230 0.0 0.0 0.04 0.27 0.00 93 1013.2
20260903195955 78 230 0.0 0.0 0.04 0.26 0.00 93 1013.1
20260903195455 78 230 0.0 0.0 0.05 0.26 0.00 93 1013.4
20260903194958 78 230 0.0 0.0 0.06 0.26 0.00 93 1013.3
20260903194455 78 230 0.0 2.0 0.06 0.26 0.00 93 1013.3
20260903193955 78 157 0.0 0.0 0.06 0.26 0.00 93 1013.4
20260903193456 78 157 0.0 0.0 0.06 0.26 0.00 93 1013.4
20260903192955 78 157 0.0 0.0 0.06 0.26 0.00 93 1013.6
20260903192455 78 157 0.0 0.0 0.06 0.26 0.00 93 1013.8
20260903191956 78 157 0.0 0.0 0.08 0.26 0.00 92 1013.6
20260903191459 78 157 0.0 0.0 0.08 0.26 0.00 92 1013.4
20260903190955 78 157 0.0 0.0 0.07 0.25 0.00 91 1013.7
20260903190455 78 157 0.0 0.0 0.06 0.24 0.00 91 1013.7
20260903185955 78 157 0.0 0.0 0.04 0.22 0.00 91 1014.0
20260903185455 79 157 0.0 0.0 0.04 0.20 0.00 90 1014.1
20260903184955 79 157 0.0 0.0 0.03 0.19 0.00 90 1014.1
20260903184455 79 157 0.0 0.0 0.03 0.19 0.00 90 1014.1
20260903183955 79 157 0.0 0.0 0.03 0.19 0.00 89 1014.1
20260903183455 79 157 0.0 0.0 0.03 0.19 0.00 89 1014.1
20260903182956 79 157 0.0 0.0 0.03 0.19 0.00 88 1014.0
20260903182455 80 157 0.0 0.0 0.03 0.19 0.00 88 1014.0
20260903181959 80 157 0.0 0.0 0.02 0.18 0.00 87 1014.0
20260903181455 81 144 0.0 4.0 0.02 0.18 0.00 86 1013.9
20260903180955 82 195 0.0 1.0 0.02 0.18 0.00 85 1013.9
20260903180457 83 161 0.0 6.0 0.02 0.18 0.00 83 1013.9
20260903180000 85 162 1.0 6.0 0.01 0.17 0.00 81 1014.0
20260903175456 86 108 1.0 2.0 0.00 0.16 0.00 82 1014.1
20260903174958 86 150 0.0 2.0 0.00 0.16 0.00 81 1014.2
20260903174455 87 59 0.0 2.0 0.00 0.16 0.00 81 1014.2
20260903173955 87 295 0.0 0.0 0.00 0.16 0.00 80 1014.0
20260903173455 87 296 0.0 0.0 0.00 0.16 0.00 79 1014.2
20260903172955 87 295 0.0 0.0 0.00 0.16 0.00 79 1014.1
20260903172456 87 295 0.0 0.0 0.00 0.16 0.00 79 1014.1
20260903171955 87 295 0.0 1.0 0.00 0.16 0.00 79 1013.9
20260903171455 88 295 0.0 1.0 0.00 0.16 0.00 78 1013.6
20260903170955 88 295 0.0 0.0 0.00 0.16 0.00 79 1013.8
20260903170456 88 295 0.0 1.0 0.00 0.16 0.00 78 1014.0
20260903165956 88 295 0.0 0.0 0.00 0.16 0.00 78 1013.9
20260903165455 88 295 0.0 1.0 0.00 0.16 0.00 78 1013.9
20260903164955 88 295 0.0 1.0 0.00 0.16 0.00 77 1014.0
20260903164458 88 295 1.0 1.0 0.00 0.16 0.00 78 1014.0
20260903163955 87 296 0.0 0.0 0.00 0.16 0.00 77 1014.0
20260903163455 87 296 0.0 0.0 0.00 0.16 0.00 78 1014.0
20260903162956 87 296 0.0 1.0 0.00 0.16 0.00 79 1013.9
20260903162455 87 295 0.0 1.0 0.00 0.16 0.00 79 1014.0
20260903161955 87 296 0.0 1.0 0.00 0.16 0.00 78 1014.0
20260903161455 87 295 0.0 1.0 0.00 0.16 0.00 79 1013.9
20260903160955 87 295 0.0 2.0 0.00 0.16 0.00 80 1013.9
20260903160458 86 295 0.0 1.0 0.00 0.16 0.00 81 1013.9
20260903155955 86 295 0.0 4.0 0.00 0.16 0.00 81 1013.8
20260903155455 86 232 1.0 2.0 0.00 0.16 0.00 81 1013.9
20260903154956 86 159 0.0 1.0 0.00 0.16 0.00 81 1013.9
20260903154456 86 159 1.0 2.0 0.00 0.16 0.00 81 1013.8
20260903153955 86 159 0.0 0.0 0.00 0.16 0.00 81 1013.8
20260903153455 86 159 0.0 0.0 0.00 0.16 0.00 82 1013.9
20260903152958 86 159 0.0 0.0 0.00 0.16 0.00 82 1013.9
20260903152455 86 159 0.0 0.0 0.00 0.16 0.00 82 1014.0
20260903151955 85 159 0.0 1.0 0.00 0.16 0.00 83 1014.0
20260903151456 85 159 0.0 1.0 0.00 0.16 0.00 83 1014.0
20260903150955 85 159 0.0 1.0 0.00 0.16 0.00 82 1014.1
20260903150455 85 162 0.0 1.0 0.00 0.16 0.00 83 1014.1
20260903145955 85 162 0.0 0.0 0.00 0.16 0.00 84 1014.3
20260903145455 85 162 0.0 2.0 0.00 0.16 0.00 84 1014.4
20260903144955 85 162 0.0 2.0 0.00 0.16 0.00 84 1014.5
20260903144455 85 162 0.0 0.0 0.00 0.16 0.00 85 1014.5
20260903143956 84 162 0.0 1.0 0.00 0.16 0.00 85 1014.4
20260903143455 84 162 0.0 0.0 0.00 0.16 0.00 86 1014.3
20260903142955 84 162 0.0 0.0 0.00 0.16 0.00 86 1014.3
20260903142455 84 162 0.0 0.0 0.00 0.16 0.00 86 1014.2
20260903141955 83 162 0.0 0.0 0.00 0.16 0.00 86 1014.3
20260903141456 83 162 0.0 0.0 0.00 0.16 0.00 87 1014.2
20260903140955 83 162 0.0 0.0 0.00 0.16 0.00 88 1014.1
20260903140456 83 162 0.0 0.0 0.00 0.16 0.00 88 1014.1
20260903135955 82 162 0.0 0.0 0.00 0.16 0.00 88 1014.1
20260903135455 82 162 0.0 0.0 0.00 0.16 0.00 88 1014.2
20260903134955 82 162 0.0 0.0 0.00 0.16 0.00 88 1014.2
20260903134455 82 162 0.0 0.0 0.00 0.16 0.00 88 1014.2
20260903133955 82 162 0.0 0.0 0.00 0.16 0.00 88 1014.2
20260903133455 82 162 0.0 0.0 0.00 0.16 0.00 88 1014.1
20260903132956 82 162 0.0 0.0 0.00 0.16 0.00 88 1014.1
20260903132455 82 162 0.0 0.0 0.00 0.16 0.00 87 1014.0
20260903131955 82 162 0.0 0.0 0.00 0.16 0.00 87 1014.0
20260903131455 82 162 0.0 0.0 0.00 0.16 0.00 86 1013.9
20260903130955 82 162 0.0 0.0 0.00 0.16 0.00 86 1013.8
20260903130456 82 162 0.0 0.0 0.00 0.16 0.00 86 1013.9
20260903125955 82 162 0.0 0.0 0.00 0.16 0.00 86 1013.8
20260903125455 82 162 0.0 0.0 0.00 0.16 0.00 86 1013.8
20260903124955 82 162 0.0 0.0 0.00 0.16 0.00 85 1013.7
20260903124455 82 162 0.0 0.0 0.00 0.16 0.00 85 1013.5
20260903123955 82 162 0.0 0.0 0.00 0.16 0.00 85 1013.5
20260903123456 82 162 0.0 0.0 0.00 0.16 0.00 86 1013.5
20260903122955 82 162 0.0 0.0 0.00 0.16 0.00 86 1013.4
20260903122455 82 162 0.0 0.0 0.00 0.16 0.00 86 1013.3
20260903121955 82 162 0.0 0.0 0.00 0.16 0.00 87 1013.4
20260903121455 82 162 0.0 0.0 0.00 0.16 0.00 87 1013.3
20260903120956 82 162 0.0 0.0 0.00 0.16 0.00 87 1013.2
20260903120455 82 162 0.0 0.0 0.00 0.16 0.00 87 1013.3
20260903115955 82 162 0.0 0.0 0.00 0.16 0.00 88 1013.3
20260903115458 82 162 0.0 0.0 0.00 0.16 0.00 88 1013.2
20260903114955 82 162 0.0 0.0 0.00 0.16 0.00 88 1013.2
20260903114458 82 162 0.0 0.0 0.00 0.16 0.00 88 1013.0
20260903113955 82 162 0.0 0.0 0.00 0.16 0.00 88 1012.9
20260903113455 82 162 0.0 0.0 0.00 0.16 0.00 88 1012.9
20260903112955 82 162 0.0 0.0 0.00 0.16 0.00 88 1013.1
20260903112456 82 162 0.0 0.0 0.00 0.16 0.00 88 1013.1
20260903111955 82 162 0.0 0.0 0.00 0.16 0.00 88 1013.1
20260903111455 82 162 0.0 0.0 0.00 0.16 0.00 88 1013.0
20260903110955 82 162 0.0 0.0 0.00 0.16 0.00 88 1013.1
20260903110458 82 162 0.0 0.0 0.00 0.16 0.00 88 1013.0
20260903105956 82 162 0.0 0.0 0.00 0.16 0.00 88 1013.0
20260903105455 82 162 0.0 0.0 0.00 0.16 0.00 88 1013.0
20260903104955 82 162 0.0 0.0 0.00 0.16 0.00 88 1012.9
20260903104455 82 162 0.0 0.0 0.00 0.16 0.00 87 1012.9
20260903103955 82 162 0.0 0.0 0.00 0.16 0.00 87 1012.8
20260903103455 82 162 0.0 0.0 0.00 0.16 0.00 87 1012.7
20260903102956 82 162 0.0 0.0 0.00 0.16 0.00 87 1012.7
20260903102458 82 162 0.0 0.0 0.00 0.16 0.00 87 1012.8
20260903101955 82 162 0.0 0.0 0.00 0.16 0.00 87 1012.7
20260903101455 82 162 0.0 0.0 0.00 0.16 0.00 87 1012.8
20260903100955 82 162 0.0 0.0 0.00 0.16 0.00 87 1012.8
20260903100455 82 162 0.0 0.0 0.00 0.16 0.00 87 1012.8
20260903095956 82 162 0.0 0.0 0.00 0.16 0.00 87 1012.8
20260903095455 82 162 0.0 0.0 0.00 0.16 0.00 87 1012.7
20260903094955 82 162 0.0 1.0 0.00 0.16 0.00 87 1012.9
20260903094458 82 162 1.0 1.0 0.00 0.16 0.00 87 1012.9
20260903093958 82 162 0.0 0.0 0.00 0.16 0.00 87 1012.8
20260903093458 82 162 0.0 0.0 0.00 0.16 0.00 87 1012.8
20260903092955 82 162 0.0 0.0 0.00 0.16 0.00 87 1012.7
20260903092456 82 162 0.0 0.0 0.00 0.16 0.00 87 1012.7
20260903091956 82 162 0.0 0.0 0.00 0.16 0.00 87 1012.8
20260903091455 82 162 0.0 1.0 0.00 0.16 0.00 87 1012.9
20260903090955 82 162 0.0 0.0 0.00 0.16 0.00 87 1012.9
20260903090455 82 162 0.0 0.0 0.00 0.16 0.00 87 1012.7
20260903085955 82 162 0.0 0.0 0.00 0.16 0.00 87 1012.8
20260903085456 82 162 0.0 0.0 0.00 0.16 0.00 88 1012.7
20260903084955 82 162 0.0 0.0 0.00 0.16 0.00 88 1012.8
20260903084458 82 162 0.0 0.0 0.00 0.16 0.00 88 1012.6
20260903083955 82 162 0.0 1.0 0.00 0.16 0.00 88 1012.6
20260903083455 82 162 0.0 0.0 0.00 0.16 0.00 88 1012.7
20260903082955 82 162 0.0 0.0 0.00 0.16 0.00 88 1012.7
20260903082456 82 162 0.0 0.0 0.00 0.16 0.00 88 1012.7
20260903081955 82 162 0.0 0.0 0.00 0.16 0.00 89 1012.7
20260903081455 82 162 0.0 0.0 0.00 0.16 0.00 89 1012.5
20260903080958 82 162 0.0 0.0 0.00 0.16 0.00 89 1012.6
20260903080455 82 162 0.0 0.0 0.00 0.16 0.00 89 1012.6
20260903075955 82 162 0.0 0.0 0.00 0.16 0.00 89 1012.6
20260903075456 82 162 0.0 0.0 0.00 0.16 0.00 89 1012.5
20260903074955 82 162 0.0 0.0 0.00 0.16 0.00 89 1012.5
20260903074455 82 162 0.0 0.0 0.00 0.16 0.00 89 1012.5
20260903073958 82 162 0.0 0.0 0.00 0.16 0.00 89 1012.6
20260903073455 82 162 0.0 0.0 0.00 0.16 0.00 89 1012.6
20260903072956 82 162 0.0 0.0 0.00 0.16 0.00 90 1012.7
20260903072455 82 162 0.0 0.0 0.00 0.16 0.00 90 1012.8
20260903071955 82 162 0.0 0.0 0.00 0.16 0.00 90 1012.8
20260903071455 82 162 0.0 0.0 0.00 0.16 0.00 90 1012.8
20260903070958 82 162 0.0 0.0 0.00 0.16 0.00 90 1012.8
20260903070455 82 162 0.0 0.0 0.00 0.16 0.00 90 1012.8
20260903065955 82 162 0.0 0.0 0.00 0.16 0.00 90 1012.9
20260903065455 82 162 0.0 0.0 0.00 0.16 0.00 90 1013.0
20260903064955 82 162 0.0 0.0 0.00 0.16 0.00 90 1012.8
20260903064459 82 162 0.0 0.0 0.00 0.16 0.00 90 1012.8
20260903063955 82 162 0.0 0.0 0.00 0.16 0.00 90 1012.7
20260903063455 82 162 0.0 0.0 0.00 0.16 0.00 91 1012.8
20260903062955 82 163 0.0 0.0 0.00 0.16 0.00 91 1012.9
20260903062456 82 163 0.0 0.0 0.00 0.16 0.00 90 1013.1
20260903061955 82 163 0.0 0.0 0.00 0.16 0.00 90 1013.2
20260903061455 82 163 0.0 0.0 0.00 0.16 0.00 91 1013.2
20260903060956 82 163 0.0 0.0 0.00 0.16 0.00 90 1013.2
20260903060455 82 163 0.0 0.0 0.00 0.16 0.00 90 1013.4
20260903055955 82 163 0.0 0.0 0.00 0.16 0.00 90 1013.5
20260903055455 82 163 0.0 0.0 0.00 0.16 0.00 90 1013.6
20260903054956 82 163 0.0 0.0 0.00 0.16 0.00 90 1013.7
20260903054458 82 163 0.0 0.0 0.00 0.16 0.00 91 1013.9
20260903053955 82 163 0.0 0.0 0.00 0.16 0.00 90 1013.9
20260903053455 82 163 0.0 0.0 0.00 0.16 0.00 91 1013.9
20260903052955 82 163 0.0 0.0 0.00 0.16 0.00 91 1013.9
20260903052455 82 163 0.0 0.0 0.00 0.16 0.00 91 1014.0
20260903051955 82 163 0.0 0.0 0.00 0.16 0.00 92 1014.1
20260903051456 82 163 0.0 0.0 0.00 0.16 0.00 91 1014.2
20260903050958 82 163 0.0 0.0 0.00 0.16 0.00 92 1014.2
20260903050458 82 163 0.0 0.0 0.00 0.16 0.00 92 1014.1
20260903045955 82 163 0.0 0.0 0.00 0.16 0.00 92 1014.0
20260903045455 82 163 0.0 0.0 0.00 0.16 0.00 92 1014.0
20260903044955 81 163 0.0 0.0 0.00 0.16 0.00 92 1014.2
20260903044455 81 163 0.0 0.0 0.00 0.16 0.00 92 1014.3
20260903043955 81 163 0.0 0.0 0.00 0.16 0.00 93 1014.4
20260903043456 81 163 0.0 0.0 0.00 0.16 0.00 93 1014.4
20260903042955 81 163 0.0 1.0 0.00 0.16 0.00 93 1014.4
20260903042455 81 140 0.0 0.0 0.00 0.16 0.00 93 1014.4
20260903041955 81 140 0.0 0.0 0.00 0.16 0.00 94 1014.3
20260903041455 81 140 0.0 0.0 0.00 0.16 0.00 94 1014.2
20260903040956 81 140 0.0 0.0 0.00 0.16 0.00 94 1014.0
20260903040455 81 140 0.0 0.0 0.00 0.16 0.00 94 1013.9
20260903035955 81 140 0.0 0.0 0.00 0.16 0.00 94 1013.8
20260903035455 80 140 0.0 0.0 0.00 0.16 0.00 94 1013.8
20260903034955 80 140 0.0 0.0 0.00 0.16 0.00 94 1013.8
20260903034455 80 140 0.0 0.0 0.00 0.16 0.00 94 1013.8
20260903033955 80 140 0.0 1.0 0.00 0.16 0.00 94 1013.9
20260903033455 79 140 0.0 0.0 0.00 0.16 0.00 94 1013.7
20260903032956 79 140 0.0 0.0 0.00 0.16 0.00 93 1013.8
20260903032455 79 140 0.0 1.0 0.00 0.16 0.00 93 1013.8
20260903031955 79 140 0.0 0.0 0.00 0.16 0.00 93 1013.6
20260903031455 79 140 0.0 0.0 0.00 0.16 0.00 92 1013.6
20260903030955 79 140 0.0 0.0 0.00 0.16 0.00 92 1013.3
20260903030456 79 140 0.0 0.0 0.00 0.16 0.00 92 1013.4
20260903025955 79 140 0.0 0.0 0.01 0.16 0.00 92 1013.3
20260903025458 79 140 0.0 0.0 0.02 0.16 0.00 92 1013.1
20260903024956 79 140 0.0 0.0 0.05 0.16 0.00 91 1013.0
20260903024455 79 140 0.0 0.0 0.08 0.16 0.00 91 1013.1
20260903023955 79 140 0.0 0.0 0.10 0.16 0.00 91 1013.1
20260903023456 79 140 0.0 0.0 0.16 0.16 0.00 91 1013.0
20260903022955 80 140 0.0 0.0 0.16 0.16 0.00 91 1012.9
20260903022455 80 140 0.0 0.0 0.16 0.16 0.00 90 1012.7
20260903021955 80 140 0.0 0.0 0.16 0.16 0.00 90 1012.6
20260903021455 80 140 0.0 0.0 0.16 0.16 0.00 89 1012.5
20260903020955 80 140 0.0 0.0 0.16 0.16 0.00 89 1012.3
20260903020458 81 140 0.0 0.0 0.16 0.16 0.00 88 1012.4
20260903015955 81 140 0.0 1.0 0.14 0.14 0.00 87 1012.4
20260903015459 82 140 0.0 2.0 0.13 0.13 0.00 86 1012.2
20260903014955 83 140 0.0 0.0 0.09 0.09 0.00 85 1012.6
20260903014455 83 140 0.0 1.0 0.08 0.08 0.00 83 1012.8
20260903013955 84 140 0.0 1.0 0.05 0.05 0.00 82 1013.0
20260903013456 84 142 1.0 2.0 0.00 0.00 0.00 79 1013.1
20260903012955 84 209 0.0 4.0 0.00 0.00 0.00 78 1013.1
20260903012455 85 209 4.0 4.0 0.00 0.00 0.00 77 1013.1
20260903011955 85 309 1.0 8.0 0.00 0.00 0.00 75 1012.9
20260903011455 87 350 5.0 5.0 0.00 0.00 0.00 72 1012.9
20260903010955 88 338 3.0 4.0 0.00 0.00 0.00 70 1012.8
20260903010455 89 304 1.0 4.0 0.00 0.00 0.00 67 1012.6
20260903005955 90 327 1.0 2.0 0.00 0.00 0.00 60 1012.5
20260903005455 90 225 2.0 2.0 0.00 0.00 0.00 59 1012.1
20260903004956 90 180 0.0 2.0 0.00 0.00 0.00 59 1011.7
20260903004455 91 0 0.0 2.0 0.00 0.00 0.00 58 1011.3
20260903003958 91 205 1.0 3.0 0.00 0.00 0.00 59 1011.3
20260903003456 91 162 0.0 4.0 0.00 0.00 0.00 60 1011.3
20260903002959 91 168 1.0 4.0 0.00 0.00 0.00 60 1011.2
20260903002455 91 142 1.0 2.0 0.00 0.00 0.00 60 1011.2
20260903001955 92 156 2.0 3.0 0.00 0.00 0.00 60 1011.0
20260903001455 92 172 0.0 2.0 0.00 0.00 0.00 60 1010.8
20260903000955 92 153 1.0 2.0 0.00 0.00 0.00 60 1010.7
20260903000456 92 45 2.0 2.0 0.00 0.00 0.00 61 1010.7
20260902235956 92 224 1.0 2.0 0.00 0.00 0.00 60 1010.6
20260902235455 92 225 0.0 1.0 0.00 0.00 0.00 61 1010.7
20260902234955 93 224 0.0 1.0 0.00 0.00 0.00 60 1010.6
20260902234455 93 224 1.0 2.0 0.00 0.00 0.00 60 1010.6
20260902233955 93 236 0.0 2.0 0.00 0.00 0.00 59 1010.5
20260902233455 93 236 0.0 2.0 0.00 0.00 0.00 58 1010.5